Weather in Sakkulovo

Russia / Chelyabinsk Oblast     55°29′02″N   61°23′33″E
temp.,
°C
wind,
m/s
gust,
m/s
humid.,
%
clouds,
%
prec.,
mm/h
press.,
hPa
HPBL,
m
17 may, tue
tue1723:00+10w3889100 4.2 999352
02:00+9wsw3890100 2.0 998476
05:00+9wsw4889100 2.6 999416
08:00+10w5985100 0.1 1000672
11:00+14wnw576282 0.1 10011400
14:00+15w5651100 0.7 10011906
17:00+15sw3658100 0.9 1002665
20:00+14sw11646 0.4 100211
18 may, wed
wed1823:00+12s346740 0.4 100356
02:00+8sw368455 0.0 100395
05:00+8w4987100 0.0 1004205
08:00+11wsw3571100 0.0 1005408
11:00+15ssw4543100 0.0 10041674
14:00+17ssw6841100 0.0 10022216
17:00+14sw71066100 0.2 10011005
20:00+11ssw4774100 0.6 1000369
19 may, thu
thu1923:00+9wnw3684100 0.6 1000175
02:00+8w3886100 0.1 1000222
05:00+7w41189100 0.1 1000418
08:00+9w7107498 0.0 1001824
11:00+9w9107799 0.3 1003976
14:00+7w7127333 0.1 10051018
17:00+11w51053100 0.1 10051958
20:00+10wsw5961100 0.1 1005471
20 may, fri
fri2023:00+6wsw5108287 0.1 1006356
02:00+7w4981100 0.0 1006640
05:00+4wsw498691 0.0 1007345
08:00+7w686947 0.0 1007953
11:00+8w7868100 0.3 10071220
14:00+11w575173 0.6 10071915
17:00+12w794695 0.7 10072110
20:00+9wsw59574 0.0 1007387
21 may, sat
sat2123:00+5wsw38765 0.0 1007158
02:00+4wsw33831 0.0 100532
05:00+3ssw22845 0.0 100417
08:00+8s356312 0.0 1003623
11:00+6wnw8784100 0.4 1002653
14:00+8wnw5663100 0.4 10021287
17:00+10w784893 0.4 10021868
20:00+6w796390 0.0 1003810